#timestamp,LO_Frequency,Hit,StdDev 
1553565615.6,286047001.2,N
1553565635.4,286046998.9,N
1553565655.2,286046999.6,N
1553565675.1,286046998.0,N
1553565676.0,286046998.0,N
1553565695.8,286046999.2,N
1553565715.6,286046997.1,N
1553565735.5,286046997.5,N
1553565755.3,286046999.2,N
1553565775.2,286046998.5,N
1553565795.9,286046996.5,N
1553565815.7,286046997.9,N
1553565835.6,286046995.6,Y
1553565855.4,286046996.7,P
1553565875.2,286046997.3,N
1553565895.1,286046999.2,N
1553565896.0,286046999.2,N
1553565915.8,286047000.5,N
1553565935.7,286047002.4,N
1553565955.5,286047001.7,N
1553565975.4,286047003.8,N
1553565995.2,286047003.0,N
1553566015.0,286047005.6,N
1553566015.9,286047005.6,N
1553566035.8,286047002.9,N
1553566055.6,286047001.6,N
1553566075.4,286047002.5,N
1553566095.3,286047002.8,N
1553566115.1,286047000.9,N
1553566135.8,286047000.0,N
1553566155.7,286047001.7,N
1553566175.5,286047000.2,N
1553566195.4,286046999.9,N
1553566215.2,286046999.3,N
1553566235.0,286046998.7,N
1553566235.9,286046998.7,N
1553566255.8,286046998.8,N
1553566275.6,286046999.4,N
1553566295.4,286046999.3,N
1553566315.3,286047000.7,N
1553566335.1,286047000.9,N
1553566355.9,286046998.1,N
1553566375.7,286046999.3,N
1553566395.5,286046998.3,N
1553566415.4,286046999.8,N
1553566435.2,286046999.7,N
1553566455.0,286047000.2,N
1553566455.9,286047000.2,N
1553566475.8,286047000.4,N
1553566495.6,286046999.8,N
1553566515.5,286047002.0,N
1553566535.3,286047001.8,N
1553566555.1,286047001.9,N
1553566575.9,286047002.2,N
1553566595.7,286047004.0,N
1553566615.6,286047004.3,N
1553566635.4,286047003.6,N
1553566655.2,286047001.8,N
1553566675.1,286047002.6,N
1553566676.0,286047002.6,N
1553566695.8,286046998.8,N
1553566715.7,286047000.6,N
1553566735.5,286047000.5,N
1553566755.3,286047000.4,N
1553566775.2,286047000.4,N
1553566795.9,286046999.8,N
1553566815.7,286047001.8,N
1553566835.6,286047001.6,N
1553566855.4,286047004.0,N
1553566875.2,286047004.4,N
1553566895.1,286047003.2,N
1553566896.0,286047003.2,N
1553566915.8,286047004.1,N
1553566935.7,286047003.0,N
1553566955.5,286047002.9,N
1553566975.3,286047003.9,N
1553566995.2,286047004.3,N
1553567015.0,286047004.2,N
1553567015.9,286047004.2,N
1553567035.8,286047005.6,Y
1553567055.6,286047002.8,P
1553567075.4,286046998.5,P
1553567095.3,286047000.4,N
1553567115.1,286047000.1,N
1553567135.8,286047000.2,N
1553567155.7,286046999.4,N
1553567175.5,286046997.8,N
1553567195.4,286046997.1,N
1553567215.2,286046998.9,N
1553567235.0,286046998.6,N
1553567235.9,286046998.6,N
1553567255.8,286046999.8,N
1553567275.6,286046999.8,N
1553567295.4,286047001.8,N
1553567315.3,286047003.1,N
1553567335.1,286047002.5,N
1553567355.9,286046998.7,N
1553567375.7,286046996.8,N
1553567395.5,286046999.6,N
1553567415.4,286046998.9,N
1553567435.2,286046996.9,N
1553567455.0,286046997.4,N
1553567455.9,286046997.4,N
1553567475.8,286046997.5,N
1553567495.6,286046997.1,N
1553567515.5,286046999.3,N
1553567535.3,286047001.2,N
1553567555.1,286046998.7,N
1553567575.9,286046998.2,N
1553567595.7,286047000.7,N
1553567615.5,286047001.0,N
1553567635.4,286046999.3,N
1553567655.2,286046998.6,N
1553567675.0,286046998.6,N
1553567676.0,286046998.6,N
1553567695.8,286046999.8,N
1553567715.6,286047002.4,N
1553567735.5,286047003.6,N
1553567755.3,286047002.2,N
1553567775.1,286047000.4,N
1553567795.9,286046998.6,N
1553567815.7,286046999.0,N
1553567835.2,286046999.9,N
1553567855.0,286047000.1,N
1553567855.9,286047000.1,N
1553567875.8,286046999.8,N
1553567895.6,286046999.7,N
1553567915.4,286047000.1,N
1553567935.3,286046998.6,N
1553567955.1,286046998.3,N
1553567975.8,286047000.6,N
1553567995.7,286047000.1,N
1553568015.5,286047002.5,N
1553568035.4,286047002.0,N
1553568055.2,286047001.5,N
1553568075.0,286046998.6,N
1553568075.9,286046998.6,N
1553568095.8,286046998.2,N
1553568115.6,286047000.0,N
1553568135.4,286047001.1,N
1553568155.3,286047001.2,N
1553568175.1,286047001.2,N
1553568195.9,286046999.7,N
1553568215.7,286047001.8,N
1553568235.5,286047004.3,Y
1553568255.4,286047000.1,P
1553568275.2,286047001.2,P
1553568295.1,286046998.1,P
1553568296.0,286046998.1,N
1553568315.8,286046999.7,N
1553568335.6,286047000.9,N
1553568355.5,286047001.0,N
1553568375.3,286046998.6,N
1553568395.1,286047001.1,N
1553568415.9,286046998.4,N
1553568435.7,286046997.8,N
1553568455.6,286046997.2,N
1553568475.4,286046997.5,N
1553568495.2,286046999.2,N
1553568515.1,286047000.7,N
1553568516.0,286047000.7,N
1553568535.8,286047002.2,N
1553568555.6,286047001.7,N
1553568575.5,286047002.1,N
1553568595.3,286046999.8,N
1553568615.2,286046998.5,N
1553568635.9,286047001.2,N
1553568655.7,286047001.1,N
1553568675.6,286047000.7,N
1553568695.4,286047000.8,N
1553568715.2,286046998.8,N
1553568735.1,286047002.7,N
1553568736.0,286047002.7,N
1553568755.8,286047000.7,N
1553568775.7,286047001.2,N
1553568795.5,286046998.9,N
1553568815.3,286046998.7,N
1553568835.2,286046997.1,N
1553568855.9,286046998.7,N
1553568875.7,286046998.5,N
1553568895.6,286046999.6,N
1553568915.4,286046999.4,N
1553568935.2,286047000.7,N
1553568955.1,286047000.3,N
1553568956.0,286047000.3,N
1553568975.8,286047001.2,N
1553568995.7,286047000.3,N
1553569015.5,286046999.9,N
1553569035.3,286046998.1,N
1553569055.2,286047000.6,N
1553569075.0,286047000.0,N
1553569075.9,286047000.0,N
1553569095.8,286047000.1,N
1553569115.6,286047003.7,N
1553569135.4,286047000.0,N
1553569155.3,286046998.5,N
1553569175.1,286047001.2,N
1553569176.0,286047001.2,N
1553569195.8,286046999.8,N
